Regional Weather Roundup
Issued by NWS

Home | Current Version | Previous Version | Graphics & Text | Print | Product List | Glossary On
Versions: 1 2 3 4 5 6 7 8 9 10 11 12 13 14 15 16 17 18 19 20 21 22 23 24 25 26 27 28 29 30 31 32 33 34 35 36 37 38 39 40 41 42 43 44 45 46 47 48 49 50
000
ASUS43 KDTX 012210
RWRMI
MICHIGAN HOURLY REGIONAL WEATHER ROUNDUP
NATIONAL WEATHER SERVICE DETROIT/PONTIAC MI
600 PM EDT WED APR 01 2015

NOTE: "FAIR" INDICATES FEW OR NO CLOUDS BELOW 12,000 FEET WITH NO
SIGNIFICANT WEATHER AND/OR OBSTRUCTION TO VISIBILITY.

MIZ047>049-052>055-059>063-066>070-074>076-081>083-012300-
SOUTHEAST LOWER MICHIGAN

CITY           SKY/WX    TMP DP  RH WIND       PRES   REMARKS
ADRIAN         SUNNY     64  29  26 SW6       30.02F
ALMA           SUNNY     61  36  38 SE10      29.96F
ANN ARBOR      SUNNY     65  30  27 SW10      30.02F
BAD AXE        SUNNY     52  33  47 S8        30.03F
DETROIT CITY   SUNNY     54  39  57 E10       30.05F
DETROIT        MOSUNNY   58  39  49 SE9       30.05S
FLINT          SUNNY     62  28  27 VRB5      30.01F
GROSSE ILE     SUNNY     54  39  58 S6        30.04S
HILLSDALE      SUNNY     65  30  26 S5        30.00F
HOWELL         SUNNY     62  29  29 CALM      30.01F

CITY           SKY/WX    TMP DP  RH WIND       PRES   REMARKS
JACKSON        SUNNY     64  30  27 S7        29.99F
LAMBERTVILLE   SUNNY     63  37  39 NE6       30.03F
LANSING        SUNNY     64  30  27 S5        29.98F
LAPEER         NOT AVBL
MASON          SUNNY     64  30  28 SW3       29.99F
MONROE         SUNNY     52  37  58 E10       30.03F
MT. CLEMENS    MOSUNNY   50  38  62 E9        30.04F
PONTIAC        MOSUNNY   58  32  37 W6        30.03S
PORT HOPE        N/A     37  32  82 SE12      30.02F
PORT HURON     SUNNY     52  37  58 SE9       30.07F
TRI CITIES     SUNNY     59  31  34 SW7       29.99F
YPSILANTI      SUNNY     63  40  42 SE14      30.03S
$$
MIZ043>046-050>051-056>058-064>065-071>073-077>080-012300-
SOUTHWEST LOWER MICHIGAN

CITY           SKY/WX    TMP DP  RH WIND       PRES   REMARKS
BATTLE CREEK   SUNNY     66  34  30 S7        29.98F
BENTON HARBOR  SUNNY     69  36  29 SW13      29.94F
BIG RAPIDS     SUNNY     62  31  31 S9G16     29.91F
COLDWATER      SUNNY     65  31  28 SW8       29.99F
HOLLAND        SUNNY     69  35  28 S8        29.94F
GRAND RAPIDS   MOSUNNY   64  34  32 S9        29.95F
KALAMAZOO      SUNNY    N/A N/A N/A MISG      29.98F
MARSHALL       SUNNY     64  34  33 S12       29.98F
MUSKEGON       PTSUNNY   63  33  32 S16       29.93F
$$
MIZ016>042-012300-
NORTHERN LOWER MICHIGAN

CITY           SKY/WX    TMP DP  RH WIND       PRES   REMARKS
ALPENA         MOSUNNY   44  27  51 SE12      29.99F
BEAVER ISLAND  PTSUNNY   41  31  68 E10       29.90F
BELLAIRE       CLOUDY    59  26  28 SE12      29.90F
CADILLAC       MOSUNNY   59  29  31 S14       29.91F
CHARLEVOIX     CLOUDY    53  30  41 E8        29.92F
FRANKFORT      CLEAR     64  20  18 S12G18    29.86F
GAYLORD        CLOUDY    51  28  41 SE6       29.91F
GRAYLING       MOSUNNY   55  26  32 S9        29.94F
HARBOR SPRINGS CLOUDY    53  29  40 E3        29.91F
HOUGHTON LAKE  MOSUNNY   56  28  34 S13       29.94F
MANISTEE       SUNNY     63  28  27 S13G20    29.88F
OSCODA         CLOUDY    39  31  73 SE7       30.02F
PELLSTON       CLOUDY    46  31  55 NE10      29.93F
TRAVERSE CITY  PTSUNNY   62  26  25 S8        29.87F
$$
MIZ007>008-015-012300-
EASTERN UPPER MICHIGAN

CITY           SKY/WX    TMP DP  RH WIND       PRES   REMARKS
KINROSS        CLOUDY    39  28  65 SE15      29.94F
MACKINAC ISLAN CLOUDY    33  29  84 E10G22    29.93F
NEWBERRY       CLOUDY    40  31  71 SE14      29.87F
S. S. MARIE    CLOUDY    39  25  57 SE9       29.95F
$$
MIZ004>006-011>014-085-012300-
CENTRAL UPPER MICHIGAN

CITY           SKY/WX    TMP DP  RH WIND       PRES   REMARKS
MANISTIQUE     PTSUNNY   40  33  77 SE13G18   29.86F
ESCANABA       PTSUNNY   36  30  80 SE12      29.83F
MENOMINEE      MOSUNNY   48  30  49 S14G23    29.81F
SAWYER-GWINN   MOSUNNY   43  28  56 S24G30    29.75F
$$
MIZ001>003-009>011-084-012300-
WESTERN UPPER MICHIGAN

CITY           SKY/WX    TMP DP  RH WIND       PRES   REMARKS
IRON MOUNTAIN  CLOUDY    50  30  46 S16G22    29.76F
HOUGHTON       CLOUDY    39  30  70 E13       29.66S
COPPER HARBOR    N/A     38  30  73 SW22G41   29.68R
IRONWOOD       CLOUDY    57  37  47 S15G32    29.54F
$$

ABBREVIATIONS USED IN REMARKS
   TC - TEMPERATURE IN CELSIUS
  WCI - WIND CHILL INDEX
   HX - HEAT INDEX
  VSB - VISIBILITY




USA.gov is the U.S. government's official web portal to all federal, state and local government web resources and services.